Weather History for CYXH - March, 2014

Change the Weather History Date:

Saturday, March 29, 2014

  Actual Average Record
Temperature  
Mean Temperature 36 °F -  
Max Temperature 42 °F 54 °F - ()
Min Temperature 30 °F 31 °F - ()
Degree Days  
Heating Degree Days 29    
Moisture  
Dew Point 30 °F    
Average Humidity 76    
Maximum Humidity 86    
Minimum Humidity 65    
Precipitation  
Precipitation 0.00 in 0.03 in - ()
Sea Level Pressure  
Sea Level Pressure 29.70 in    
Wind  
Wind Speed 9 mph ()    
Max Wind Speed 18 mph    
Max Gust Speed 26 mph    
Visibility 10.0 miles    
Events      
T = Trace of Precipitation, MM = Missing Value Source: Averaged Metar Reports

Daily Weather History Graph

Daily Weather History Graph

Search for Another Location

Airport or City:

Trip Planner

Search our weather history database for the weather conditions in past years. The results will help you decide how hot, cold, wet, or windy it might be!

Date:

Astronomy

Mar. 29, 2014 Rise Set
Actual Time 7:05 AM MDT 7:50 PM MDT
Civil Twilight 6:33 AM MDT 8:22 PM MDT
Nautical Twilight 5:54 AM MDT 9:02 PM MDT
Astronomical Twilight 5:13 AM MDT 9:43 PM MDT
Moon 6:22 AM MDT (3/29) 6:56 PM MDT (3/29)
Length of Visible Light 13h 49m
Length of Day
12h 44m
Waning Crescent, 1% of the Moon is Illuminated
Mar 29
Waning Crescent
Mar 30
New
Apr 7
First Quarter
Apr 15
Full
Apr 22
Last Quarter

Hourly Weather History & Observations

Time (MDT) Temp. Windchill Dew Point Humidity Pressure Visibility Wind Dir Wind Speed Gust Speed Precip Events Conditions
12:00 AM 30.2 °F - 26.6 °F 86% 29.78 in 9.0 mi Variable 2.3 mph - N/A   Overcast
12:45 AM 33.8 °F 23.9 °F 26.6 °F 75% 29.75 in 9.0 mi South 15.0 mph 20.7 mph N/A   Scattered Clouds
1:00 AM 33.8 °F 26.4 °F 26.6 °F 75% 29.74 in 9.0 mi SSW 9.2 mph - N/A   Mostly Cloudy
2:00 AM 35.6 °F 28.0 °F 28.4 °F 75% 29.70 in 9.0 mi SSW 10.4 mph - N/A   Scattered Clouds
3:00 AM 37.4 °F 28.9 °F 30.2 °F 75% 29.67 in 9.0 mi SSW 13.8 mph - N/A   Overcast
4:00 AM 37.4 °F 29.8 °F 30.2 °F 75% 29.64 in 9.0 mi SSW 11.5 mph 17.3 mph N/A   Mostly Cloudy
5:00 AM 39.2 °F 30.8 °F 30.2 °F 70% 29.62 in 9.0 mi SSW 15.0 mph - N/A   Mostly Cloudy
6:00 AM 39.2 °F 29.8 °F 30.2 °F 70% 29.62 in 9.0 mi SSW 18.4 mph 26.5 mph N/A   Mostly Cloudy
7:00 AM 37.4 °F 28.2 °F 32.0 °F 81% 29.62 in 30.0 mi SSW 16.1 mph - N/A   Mostly Cloudy
8:00 AM 37.4 °F 27.8 °F 32.0 °F 81% 29.62 in 30.0 mi SSW 17.3 mph 23.0 mph N/A   Mostly Cloudy
9:00 AM 37.4 °F 31.4 °F 32.0 °F 81% 29.65 in 30.0 mi WNW 8.1 mph - N/A   Mostly Cloudy
10:00 AM 39.2 °F 34.2 °F 33.8 °F 81% 29.64 in 30.0 mi West 6.9 mph - N/A   Mostly Cloudy
11:00 AM 39.2 °F 33.0 °F 32.0 °F 75% 29.66 in 30.0 mi West 9.2 mph - N/A   Mostly Cloudy
12:00 PM 41.0 °F 35.2 °F 32.0 °F 70% 29.66 in 30.0 mi West 9.2 mph - N/A   Mostly Cloudy
1:00 PM 42.8 °F 36.6 °F 32.0 °F 66% 29.66 in 30.0 mi West 11.5 mph - N/A   Mostly Cloudy
2:00 PM 39.2 °F 32.5 °F 32.0 °F 75% 29.67 in 30.0 mi WNW 10.4 mph - N/A   Mostly Cloudy
3:00 PM 37.4 °F 29.8 °F 30.2 °F 75% 29.68 in 30.0 mi WNW 11.5 mph - N/A   Mostly Cloudy
4:00 PM 39.2 °F 32.0 °F 30.2 °F 70% 29.70 in 30.0 mi WNW 11.5 mph - N/A   Mostly Cloudy
5:00 PM 39.2 °F 33.0 °F 28.4 °F 65% 29.71 in 30.0 mi West 9.2 mph - N/A   Scattered Clouds
6:00 PM 37.4 °F 30.8 °F 28.4 °F 70% 29.73 in 30.0 mi WNW 9.2 mph - N/A   Mostly Cloudy
7:00 PM 35.6 °F 28.6 °F 28.4 °F 75% 29.76 in 30.0 mi NNW 9.2 mph - N/A   Mostly Cloudy
8:00 PM 32.0 °F 23.0 °F 26.6 °F 80% 29.79 in 15.0 mi NNW 11.5 mph - N/A   Overcast
9:00 PM 32.0 °F 28.7 °F 26.6 °F 80% 29.81 in 15.0 mi NNE 3.5 mph - N/A   Overcast
10:00 PM 30.2 °F 21.3 °F 26.6 °F 86% 29.83 in 9.0 mi North 10.4 mph - N/A   Overcast
11:00 PM 30.2 °F 22.6 °F 26.6 °F 86% 29.85 in 9.0 mi North 8.1 mph - N/A   Overcast